TimeMDT,TemperatureF,Dew PointF,Humidity,Sea Level PressureIn,VisibilityMPH,Wind Direction,Wind SpeedMPH,Gust SpeedMPH,PrecipitationIn,Events,Conditions,WindDirDegrees,DateUTC
12:15 AM,48.2,44.6,87,30.04,10.0,SW,8.1,-,N/A,,Clear,230,2013-05-15 06:15:00
12:35 AM,46.4,41.0,81,30.05,10.0,West,5.8,-,N/A,,Clear,260,2013-05-15 06:35:00
12:55 AM,44.6,41.0,87,30.05,10.0,West,3.5,-,N/A,,Clear,260,2013-05-15 06:55:00
1:15 AM,44.6,39.2,81,30.06,10.0,West,3.5,-,N/A,,Clear,260,2013-05-15 07:15:00
1:35 AM,39.2,33.8,81,30.07,10.0,Calm,Calm,-,N/A,,Clear,0,2013-05-15 07:35:00
1:55 AM,37.4,33.8,87,30.07,10.0,NW,3.5,-,N/A,,Clear,320,2013-05-15 07:55:00
2:15 AM,35.6,32.0,87,30.07,10.0,Calm,Calm,-,N/A,,Clear,0,2013-05-15 08:15:00
2:35 AM,37.4,32.0,81,30.07,10.0,Calm,Calm,-,N/A,,Clear,0,2013-05-15 08:35:00
2:55 AM,33.8,30.2,87,30.07,10.0,Calm,Calm,-,N/A,,Clear,0,2013-05-15 08:55:00
3:15 AM,32.0,28.4,87,30.08,10.0,Calm,Calm,-,N/A,,Clear,0,2013-05-15 09:15:00
3:35 AM,32.0,26.6,80,30.08,10.0,Calm,Calm,-,N/A,,Clear,0,2013-05-15 09:35:00
3:55 AM,28.4,24.8,86,30.09,10.0,Calm,Calm,-,N/A,,Clear,0,2013-05-15 09:55:00
4:15 AM,28.4,24.8,86,30.09,10.0,Calm,Calm,-,N/A,,Clear,0,2013-05-15 10:15:00
4:35 AM,30.2,26.6,86,30.09,10.0,Calm,Calm,-,N/A,,Clear,0,2013-05-15 10:35:00
4:55 AM,28.4,24.8,86,30.09,10.0,SSW,5.8,-,N/A,,Clear,210,2013-05-15 10:55:00
5:15 AM,26.6,23.0,86,30.10,10.0,Calm,Calm,-,N/A,,Clear,0,2013-05-15 11:15:00
5:35 AM,28.4,24.8,86,30.10,10.0,Calm,Calm,-,N/A,,Clear,0,2013-05-15 11:35:00
5:55 AM,28.4,24.8,86,30.10,10.0,Calm,Calm,-,N/A,,Clear,0,2013-05-15 11:55:00
6:15 AM,26.6,23.0,86,30.10,10.0,Calm,Calm,-,N/A,,Clear,0,2013-05-15 12:15:00
6:35 AM,28.4,24.8,86,30.11,10.0,Calm,Calm,-,N/A,,Clear,0,2013-05-15 12:35:00
6:55 AM,32.0,28.4,87,30.11,10.0,Calm,Calm,-,N/A,,Clear,0,2013-05-15 12:55:00
7:15 AM,35.6,32.0,87,30.11,10.0,Calm,Calm,-,N/A,,Clear,0,2013-05-15 13:15:00
7:35 AM,37.4,33.8,87,30.11,10.0,Calm,Calm,-,N/A,,Clear,0,2013-05-15 13:35:00
7:55 AM,39.2,35.6,87,30.11,10.0,Calm,Calm,-,N/A,,Clear,0,2013-05-15 13:55:00
8:15 AM,41.0,35.6,81,30.11,10.0,Calm,Calm,-,N/A,,Clear,0,2013-05-15 14:15:00
8:35 AM,42.8,39.2,87,30.10,10.0,NNW,3.5,-,N/A,,Clear,330,2013-05-15 14:35:00
8:55 AM,44.6,39.2,81,30.10,10.0,Calm,Calm,-,N/A,,Clear,0,2013-05-15 14:55:00
9:15 AM,46.4,42.8,87,30.10,10.0,East,4.6,-,N/A,,Clear,80,2013-05-15 15:15:00
9:35 AM,48.2,44.6,87,30.09,10.0,ENE,3.5,-,N/A,,Clear,70,2013-05-15 15:35:00
9:55 AM,50.0,46.4,87,30.09,10.0,Calm,Calm,-,N/A,,Clear,0,2013-05-15 15:55:00
10:15 AM,53.6,48.2,82,30.08,10.0,Calm,Calm,-,N/A,,Clear,0,2013-05-15 16:15:00
10:35 AM,55.4,50.0,82,30.07,10.0,SSW,3.5,-,N/A,,Clear,200,2013-05-15 16:35:00
10:55 AM,57.2,53.6,88,30.07,10.0,Calm,Calm,-,N/A,,Clear,0,2013-05-15 16:55:00
11:15 AM,59.0,55.4,88,30.06,10.0,ESE,5.8,-,N/A,,Clear,120,2013-05-15 17:15:00
11:35 AM,60.8,55.4,82,30.06,10.0,SE,3.5,-,N/A,,Clear,140,2013-05-15 17:35:00
11:55 AM,64.4,59.0,83,30.05,10.0,WSW,9.2,16.1,N/A,,Clear,250,2013-05-15 17:55:00
12:15 PM,64.4,59.0,83,30.04,10.0,SW,11.5,18.4,N/A,,Clear,230,2013-05-15 18:15:00
12:35 PM,64.4,59.0,83,30.03,10.0,WSW,10.4,18.4,N/A,,Clear,250,2013-05-15 18:35:00
12:55 PM,64.4,60.8,88,30.03,10.0,SSW,11.5,20.7,N/A,,Clear,210,2013-05-15 18:55:00
1:15 PM,66.2,60.8,83,30.02,10.0,SSW,11.5,18.4,N/A,,Clear,210,2013-05-15 19:15:00
1:35 PM,66.2,62.6,88,30.01,10.0,South,9.2,18.4,N/A,,Clear,190,2013-05-15 19:35:00
1:55 PM,66.2,62.6,88,30.00,10.0,SW,11.5,19.6,N/A,,Clear,220,2013-05-15 19:55:00
2:15 PM,66.2,62.6,88,29.99,10.0,SW,13.8,18.4,N/A,,Scattered Clouds,230,2013-05-15 20:15:00
2:35 PM,68.0,62.6,83,29.98,10.0,WSW,11.5,35.7,N/A,,Mostly Cloudy,250,2013-05-15 20:35:00
2:55 PM,66.2,62.6,88,29.98,10.0,SW,10.4,18.4,N/A,,Scattered Clouds,230,2013-05-15 20:55:00
3:15 PM,68.0,62.6,83,29.98,10.0,West,9.2,20.7,N/A,,Mostly Cloudy,260,2013-05-15 21:15:00
3:35 PM,64.4,59.0,83,29.98,10.0,West,10.4,17.3,N/A,,Mostly Cloudy,270,2013-05-15 21:35:00
3:55 PM,66.2,60.8,83,29.98,10.0,WNW,10.4,17.3,N/A,,Scattered Clouds,300,2013-05-15 21:55:00
4:15 PM,64.4,59.0,83,29.97,10.0,West,4.6,-,N/A,,Partly Cloudy,260,2013-05-15 22:15:00
4:35 PM,64.4,60.8,88,29.96,10.0,West,5.8,-,N/A,,Clear,280,2013-05-15 22:35:00
4:55 PM,66.2,60.8,83,29.95,10.0,SW,8.1,-,N/A,,Partly Cloudy,230,2013-05-15 22:55:00
5:15 PM,64.4,60.8,88,29.95,10.0,WSW,9.2,-,N/A,,Scattered Clouds,240,2013-05-15 23:15:00
5:35 PM,66.2,60.8,83,29.94,10.0,WSW,9.2,-,N/A,,Mostly Cloudy,250,2013-05-15 23:35:00
5:55 PM,66.2,62.6,88,29.93,10.0,SW,11.5,18.4,N/A,,Overcast,230,2013-05-15 23:55:00
6:15 PM,64.4,59.0,83,29.94,10.0,South,20.7,27.6,N/A,,Overcast,190,2013-05-16 00:15:00
6:35 PM,62.6,57.2,82,29.93,10.0,South,11.5,-,N/A,,Overcast,180,2013-05-16 00:35:00
6:55 PM,60.8,57.2,88,29.92,10.0,SSE,9.2,-,N/A,,Overcast,160,2013-05-16 00:55:00
7:15 PM,59.0,55.4,88,29.93,10.0,NW,5.8,-,N/A,,Overcast,320,2013-05-16 01:15:00
7:35 PM,57.2,51.8,82,29.94,9.0,NW,12.7,18.4,N/A,Rain,Light Rain,320,2013-05-16 01:35:00
7:55 PM,53.6,48.2,82,29.96,9.0,NNW,9.2,-,N/A,Rain,Light Rain,330,2013-05-16 01:55:00
8:15 PM,51.8,48.2,88,29.97,9.0,NNW,6.9,18.4,N/A,Rain,Light Rain,330,2013-05-16 02:15:00
8:35 PM,48.2,44.6,87,29.98,10.0,North,5.8,-,0.01,,Mostly Cloudy,350,2013-05-16 02:35:00
8:55 PM,48.2,44.6,87,29.97,10.0,NE,6.9,-,0.01,,Overcast,50,2013-05-16 02:55:00
9:15 PM,48.2,44.6,87,29.98,10.0,SE,4.6,-,N/A,,Overcast,140,2013-05-16 03:15:00
9:35 PM,48.2,44.6,87,29.98,10.0,SE,5.8,-,N/A,,Overcast,130,2013-05-16 03:35:00
9:55 PM,48.2,42.8,82,29.97,10.0,ESE,4.6,-,N/A,,Overcast,120,2013-05-16 03:55:00
10:15 PM,48.2,42.8,82,29.98,10.0,Calm,Calm,-,N/A,,Mostly Cloudy,0,2013-05-16 04:15:00
10:35 PM,46.4,41.0,81,29.98,10.0,NW,3.5,-,N/A,,Overcast,320,2013-05-16 04:35:00
10:55 PM,46.4,41.0,81,29.98,10.0,NNW,4.6,-,N/A,,Overcast,330,2013-05-16 04:55:00
11:15 PM,44.6,39.2,81,29.97,10.0,Calm,Calm,-,N/A,,Mostly Cloudy,0,2013-05-16 05:15:00
11:35 PM,42.8,37.4,81,29.97,10.0,Calm,Calm,-,N/A,,Partly Cloudy,0,2013-05-16 05:35:00
11:55 PM,46.4,41.0,81,29.98,10.0,ESE,6.9,-,N/A,,Mostly Cloudy,110,2013-05-16 05:55:00